FREGAT DEB, 45955

Orbit data source: Space-Track

FREGAT DEB, 45955 is space debris in LEO originally from a launch on Mon, 18 Jul 2011 UTC launched from the Tyuratam Missile And Space Complex (TTMTR). Debris objects in space refer to the collection of defunct objects orbiting the Earth. Examples of debris include non-operational satellites, rocket bodies, and fragments generated from explosions, collisions, or faulty payload assembly.

Loading next visibility...
Identifier
45955, 2011-037FL
Orbit
LEO
Country
Flag of CISCIS
Related business
Manufacturer
Lavochkin
Mission
Spacecraft
Bus & Motor
Unknown
Mass
Unknown
Launch date (UTC)
2011-07-18 (15 years ago)
Launch vehicle
Unknown
Launch site
Tyuratam Missile And Space Complex (TTMTR)
Object type
Payload
Rocket body
Debris
Shape & HBR
Unknown shape, 0.1 m
Radar Cross Section
Medium (>0.1 m² and <1 m²)

Expand to show TLE details & history
Last TLE update: 12 hours ago

TLE from 12 hours ago
0 FREGAT DEB
1 45955U 11037FL  26265.18714279 -.00022590  00000-0 -43499-1 0  9990
2 45955  51.5178 333.7792 1968740  67.0387 312.5572 10.47219108 27857
Epoch: 2026-09-22T04:29Z
TLE epoch observation values (Epoch: 2026-09-22T04:29:29.137Z)
Latitude
-0.00001°
Longitude
-94.64844°
Altitude
1,498.239 km
Speed
7.488 km/s
True Right ascension
22h 15m 07s
True Declination
0° 00' 00"
Sunlit
Object was in full shadow at epoch
Visualization orbit readout
Latitude
Unknown
Longitude
Unknown
Altitude
Unknown
Speed
Unknown
Apparent Right ascension
Unknown
Apparent Declination
Unknown
Sunlit
N/A
Visualization observer readout
Local Sidereal Time
09:58:45
Azimuth
Unknown
Elevation
Unknown
Doppler factor
Unknown
Orbital elements
Apogee altitude
4,184.684 km
Perigee altitude
709.723 km
Semi-major axis
8,825.34 km
Eccentricity
0.19687
Inclination
51.5178°
RAAN
333.7792°
Arg. of periapsis
67.0387°
True anomaly
293.04473°
Mean anomaly
312.5572°
Eccentric anomaly
303.10862°
Mean motion
2.61786 °/min
Orbital period
137.52 mins
BSTAR
-0.043499
Loading maneuver chart data...
Computing Atmospheric mass density...
Loading historical data...
Loading historical data...
Loading historical data...
Loading historical data...
Loading historical data...
Loading historical data...
Loading historical data...

Documentation

Showing up to 5 results
|